Regional Weather Roundup
Issued by NWS

Home | Current Version | Previous Version | Text Only | Print | Product List | Glossary Off
Versions: 1 2 3 4 5 6 7 8 9 10 11 12 13 14 15 16 17 18 19 20 21 22 23 24 25 26 27 28 29 30 31 32 33 34 35 36 37 38 39 40 41 42 43 44 45 46 47 48 49 50

000
ASUS45 KBOI 190610
RWRID

IDAHO REGIONAL WEATHER ROUNDUP
NATIONAL WEATHER SERVICE BOISE ID
1100 PM MST WED JAN 18 2017

NOTE: "FAIR" INDICATES FEW OR NO CLOUDS BELOW 12000 FEET
WITH NO SIGNIFICANT WEATHER AND/OR OBSTRUCTIONS TO VISIBILITY

IDZ012-014-190700-
SOUTHWEST IDAHO


CITY           SKY/WX    TMP DP  RH WIND       PRES   REMARKS
BOISE          CLOUDY    37  33  85 SE15      29.68F WCI  28
CALDWELL       LGT RAIN  33  31  92 SE25G32   29.69F WCI  20
MOUNTAIN HOME  LGT SNOW  32  32 100 E24       29.72F FOG     WCI  19
$$

IDZ016-017-190700-
SOUTHCENTRAL IDAHO


CITY           SKY/WX    TMP DP  RH WIND       PRES   REMARKS
BURLEY         LGT RAIN  35  31  85 S10       29.75F WCI  27
JEROME         LGT SNOW  26  24  92 NE21      29.77S FOG     WCI  12
TWIN FALLS     FRZ RAIN  33  30  88 MISG      29.75S FOG
$$

IDZ019>023-190700-
SOUTHEAST IDAHO


CITY           SKY/WX    TMP DP  RH WIND       PRES   REMARKS
IDAHO FALLS    CLOUDY    21  16  81 VRB6      29.84S WCI  13
POCATELLO      LGT SNOW  23  18  81 NE7       29.84R WCI  15
REXBURG        CLOUDY    19  14  81 CALM      29.82S
$$

IDZ006-010-011-018-031-032-190700-
CENTRAL IDAHO MOUNTAINS


CITY           SKY/WX    TMP DP  RH WIND       PRES   REMARKS
MCCALL         LGT SNOW  33  31  92 S12       29.61R FOG     WCI  24
HAILEY         LGT SNOW  28  28 100 NW3       29.78F VSB 1
STANLEY          N/A     33  31  92 S12       29.66S WCI  24
SALMON         CLOUDY    16  12  86 CALM      29.72F
CHALLIS        LGT SNOW  18  17  96 S5        29.72S FOG     WCI  11
$$

IDZ002-004-006-007-026-190700-
NORTHERN IDAHO


CITY           SKY/WX    TMP DP  RH WIND       PRES   REMARKS
LEWISTON       CLOUDY    39  31  72 S15       29.56R WCI  31
LOWELL           N/A     33  31  92 NW3       29.61S
COEUR D`ALENE  LGT RAIN  35  34  96 NE5       29.50F WCI  31
MULLAN PASS    SNOW      33  30  88 VRB7      29.47F VSB 1/2 WCI  27
$$



USA.gov is the U.S. government's official web portal to all federal, state and local government web resources and services.